Regional Weather Roundup
Issued by NWS Sterling, VA

Home | Current Version | Previous Version | Text Only | Print | Product List | Glossary Off
Versions: 1 2 3 4 5 6 7 8 9 10 11 12 13 14 15 16 17 18 19 20 21 22 23 24 25 26 27 28 29 30 31 32 33 34 35 36 37 38 39 40 41 42 43 44 45 46 47 48 49 50

211
ASUS41 KLWX 231210
RWRLWX

REGIONAL WEATHER ROUNDUP
NATIONAL WEATHER SERVICE BALTIMORE MD/WASHINGTON DC
700 AM EST MON JAN 23 2017

Note: "FAIR" indicates few or no clouds below 12,000 feet
with no significant weather and/or obstructions to visibility.
 TC=TEMPERATURE CELSIUS

 * =Non NWS site. Station does not report precipitation (e.g. rain,
    snow, etc.), thunder, or fog.

DCZ001-MDZ009-015-VAZ040>042-051-053>054-231300-
WASHINGTON METRO

CITY           SKY/WX    TMP DP  RH WIND       PRES   REMARKS
WASHINGTON NAT LGT RAIN  47  45  93 NE22G33   29.50F FOG
DULLES         CLOUDY    45  42  89 E24G35    29.49S FOG
ANDREWS AFB    LGT RAIN  46  45  93 NE24G30   29.48S FOG
FT BELVOIR     DRIZZLE   46  45  93 VRB5      29.49R
QUANTICO       LGT RAIN  48  47  96 E23G29    29.47R FOG
COLLEGE PARK*  CLOUDY    43  41  93 NE12G22   29.52R
LEESBURG*      CLOUDY    46  46 100 NE12G33   29.53S FOG
MANASSAS*      LGT RAIN N/A N/A N/A MISG      29.49
GAITHERSBURG*  CLOUDY    45  39  81 E13G26    29.55S

$$

MDZ006>007-011-014-231300-
BALTIMORE METRO

CITY           SKY/WX    TMP DP  RH WIND       PRES   REMARKS
BWI AIRPORT    DRIZZLE   44  44 100 NE28G40   29.55F FOG
MD SCIENCE CTR   N/A     46  41  82 MISG      29.56F
MARTIN STATE   RAIN      45  45 100 NE12G21   29.59F
ANNAPOLIS      CLOUDY    47  50 100 NE16G24   29.53F HAZE
FORT MEADE*    CLOUDY    43  41  93 NE13G24   29.56F

$$

MDZ012-015-019>023-231300-
MARYLAND EASTERN SHORE

CITY           SKY/WX    TMP DP  RH WIND       PRES   REMARKS
OCEAN CITY     CLOUDY    50  48  93 E22G30    29.49F
SALISBURY      LGT RAIN  51  49  92 E24G33    29.48F FOG
BAY BRIDGE AP* CLOUDY    46  45  93 E18G30    29.53R FOG
CAMBRIDGE*     CLOUDY    46  45  93 E18G30    29.49R
EASTON*        CLOUDY    48  45  87 E25G37    29.55F

$$

MDZ017>025-231300-
SOUTHERN MARYLAND

CITY           SKY/WX    TMP DP  RH WIND       PRES   REMARKS
PATUXENT RIVER DRIZZLE   49  48  97 E22       29.44F
ST INIGOES     CLOUDY    50  48  93 NE20G30   29.43S
LEONARDTOWN*   CLOUDY    48  46  93 E16G24    29.47R

$$

MDZ003>005-231300-
NORTH CENTRAL MARYLAND

CITY           SKY/WX    TMP DP  RH WIND       PRES   REMARKS
FREDERICK*     LGT RAIN  43  43 100 NE17G24   29.57F
HAGERSTOWN APT CLOUDY    44  40  85 NE17G24   29.56F FOG
WESTMINSTER*   DRIZZLE   41  39  93 E18G26    29.56S

$$

MDZ501>502-231300-
WESTERN MARYLAND

CITY           SKY/WX    TMP DP  RH WIND       PRES   REMARKS
OAKLAND*         N/A     36  36 100 E20G31    29.44S FOG     WCI  25
CUMBERLAND*    CLOUDY    45  43  93 N6        29.58S

$$

VAZ025>031-231300-
SHENANDOAH VALLEY

CITY           SKY/WX    TMP DP  RH WIND       PRES   REMARKS
WINCHESTER*    DRIZZLE   43  43 100 NE9       29.52R
FRONT ROYAL*   CLOUDY    45  45 100 NE6       29.49R
LURAY*         RAIN      45  45 100 NE12      29.45F
NEW MARKET*    CLOUDY    45  43  92 N14G20    29.44S
STAUNTON*      DRIZZLE   45  44  95 N16       29.39F
WAYNESBORO*    CLOUDY    46  44  94 N13G20    29.37F

$$

WVZ021-048>050-054>055-231300-
EASTERN WEST VIRGINIA PANHANDLE

CITY           SKY/WX    TMP DP  RH WIND       PRES   REMARKS
MARTINSBURG    LGT RAIN  44  42  93 NE13      29.54R FOG
PETERSBURG*    RAIN      48  45  88 N5        29.49S

$$

VAZ036>039-050-231300-
CENTRAL FOOTHILLS

CITY           SKY/WX    TMP DP  RH WIND       PRES   REMARKS
CHARLOTTESVILL HVY RAIN  49  47  93 NE14G29   29.38F FOG
CULPEPER*      RAIN      48  47  97 NE10G21   29.45F
ORANGE*        DRIZZLE   48  48 100 N12G21    29.42F
GORDONSVILLE*  CLOUDY    48  47  99 NE12G22   29.40F FOG
WARRENTON*     LGT RAIN  48  44  87 NE10G26   29.45S

$$

VAZ055>057-231300-
NORTH AND CENTRAL PIEDMONT

CITY           SKY/WX    TMP DP  RH WIND       PRES   REMARKS
FREDERICKSBRG* LGT RAIN  49  49 100 NE16G30   29.41F
STAFFORD*      LGT RAIN  47  47 100 E18G28    29.49R

$$

NCZ024-NYZ072-PAZ021-071-VAZ022-071-231300-
OTHER REGIONAL OBSERVATIONS

CITY           SKY/WX    TMP DP  RH WIND       PRES   REMARKS
NEW YORK CITY  CLOUDY    41  34  76 E15G29    29.84F
PHILADELPHIA   DRIZZLE   43  39  86 NE22G32   29.70R
PITTSBURGH     DRIZZLE   49  44  83 E14       29.51R
ROANOKE        RAIN      49  47  93 NE15G25   29.26F
RICHMOND       LGT RAIN  51  51 100 NE23G32   29.29F FOG
RALEIGH        CLOUDY    54  53  97 SE7       29.22R

$$

ANZ530>537-231300-
MARINE OBSERVATIONS

STATION/POSITION TIME  TEMP    WIND        PRES
                       AIR SEA DIR/SP/G
                 (UTC) (F)     (DEG/KT/KT) (MB)
THOMAS PT LIGHT  1200   47 40   70/ 29/ 33   N/A
BALT KEY BRIDGE  1148   44      50/ 21/ 24 1000.7F
COVE POINT       1148   48     100/ 27/ 38  997.7F
LEWISETTA        1148   48 45   80/ 17/ 23  995.7R
SOLOMONS ISLAND  1142   49 42   60/ 20/ 26   N/A
PINEY POINT      1148           90/ 19/ 25   N/A

$$





USA.gov is the U.S. government's official web portal to all federal, state and local government web resources and services.